User: anonymous   Login
Location: Anjeux
(47.8815°N, 6.2076°E)
Time: 09:40:41
(UTC+00:00)
Language:

BEESAT - Orbit

View from above orbital plane
View from above orbital plane
View from above satellite
View from above satellite

Ground track
Ground track

The orbit data is extracted from the following two-line orbital elements,

1 35933U 09051C   21334.82960631  .00000235  00000-0  63644-4 0  9993
2 35933  98.5815 181.7323 0005033 319.1782  40.9038 14.56670795647256
Epoch (UTC): 30 November 2021 19:54:37
Eccentricity: 0.0005033
inclination: 98.5815°
perigee height: 700 km
apogee height: 707 km
right ascension of ascending node: 181.7323°
argument of perigee: 319.1782°
revolutions per day: 14.56670795
mean anomaly at epoch: 40.9038°
orbit number at epoch: 64725

The dashed part of the orbit path shows where the satellite is in the earth's shadow,  

DLR